www.pogodaiklimat.ru

Погода и климат >> Архив погоды >> Австралия >> Новый Южный Уэльс >> Эванс Хед


ПОГОДА в Эванс Хед

  • Прогноз погоды в Эванс Хед
  • Монитор погоды в Эванс Хед

АРХИВ ПОГОДЫ в Эванс Хед

Время (UTC), дата Ветер
(напр.,м/с)
 
Видим.   Явления Облачность Т
(С)
Тd
(С)
f
(%)
Тe
(С)
Тes
(С)
Комфортность P
(гПа)
Po
(гПа)
Тmin
(С)
Tmax
(С)
R
(мм)
R24
(мм)
S
(см)
01 16.04 С 3 н/о н/о +17.5 +16.5 94 +18 +18 1021.9 1014.5
02 16.04 С 1 н/о в посл. час дождь {туман} н/о +18.6 +17.9 96 +21 +21 комфорт 1021.1 1013.7 +16.0
04 16.04 Ю 8 н/о н/о +22.3 +17.4 74 +27 +27 душно 1020.1 1012.7
05 16.04 Ю 7 н/о {туман} н/о +21.0 +17.2 79 +25 +25 комфорт 1019.9 1012.5
07 16.04 Ю 6 н/о н/о +20.3 +16.5 79 +23 +23 комфорт 1020.6 1013.2
08 16.04 Ю 6 н/о н/о +20.3 +16.7 80 +23 +23 комфорт 1021.1 1013.7
10 16.04 ЮВ 6 н/о н/о +18.5 +16.5 88 +19 +19 1022.1 1014.7
11 16.04 Ю 5 н/о {туман} н/о +18.6 +16.4 87 +19 +19 1022.5 1015.1
13 16.04 Ю 5 н/о н/о +17.5 +15.8 90 +17 +17 1022.0 1014.6
14 16.04 ЮЗ 5 н/о н/о +16.9 +15.8 93 +16 +16 1021.6 1014.2 +22.6
16 16.04 ЮЗ 6 н/о н/о +16.7 +15.6 93 +16 +16 1020.8 1013.4
17 16.04 ЮЗ 5 н/о в посл. час дождь {туман} н/о +16.5 +15.2 92 +16 +16 1020.3 1012.9
19 16.04 ЮЗ 5 н/о н/о +16.3 +15.2 93 +15 +15 1021.0 1013.6
20 16.04 ЮЗ 5 н/о в посл. час дождь {туман} н/о +16.3 +15.0 92 +15 +15 1021.4 1014.0
22 16.04 Ю 5 н/о н/о +19.1 +16.9 87 +21 +21 комфорт 1022.3 1014.9
23 16.04 Ю 6 н/о {туман} н/о +21.6 +18.0 80 +26 +26 душно 1022.7 1015.3
01 17.04 Ю 7 н/о н/о +21.5 +18.5 83 +26 +26 душно 1022.2 1014.8
02 17.04 ЮВ 4 н/о в посл. час дождь {туман} н/о +22.1 +19.5 85 +28 +28 душно 1021.6 1014.2 +16.3
04 17.04 Ю 7 н/о н/о +23.2 +19.2 78 +30 +30 очень
душно
1020.6 1013.2
05 17.04 Ю 7 н/о {туман} н/о +23.3 +18.8 76 +30 +30 очень
душно
1020.6 1013.2
07 17.04 Ю 7 н/о н/о +21.1 +17.3 79 +25 +25 комфорт 1021.0 1013.6
08 17.04 Ю 5 н/о н/о +20.1 +17.1 83 +23 +23 комфорт 1021.5 1014.1
10 17.04 Ю 5 н/о н/о +18.4 +16.7 90 +19 +19 1022.6 1015.2
11 17.04 ЮЗ 5 н/о в посл. час осадки н/о +18.5 +17.2 92 +19 +19 1022.8 1015.4 2
13 17.04 ЮЗ 5 н/о н/о +18.2 +17.2 94 +18 +18 1022.8 1015.4
14 17.04 ЮЗ 5 н/о туман н/о +17.9 +16.9 94 +18 +18 1022.8 1015.4 +23.6
16 17.04 ЮЗ 5 н/о н/о +17.3 +16.3 94 +17 +17 1022.1 1014.7
17 17.04 ЮЗ 5 н/о {туман} н/о +17.2 +16.4 95 +17 +17 1021.5 1014.1
19 17.04 ЮЗ 5 н/о н/о +17.0 +16.0 94 +16 +16 1021.8 1014.4
20 17.04 ЮЗ 4 н/о {туман} н/о +17.0 +15.7 92 +16 +16 1022.1 1014.7
22 17.04 ЮЗ 4 н/о н/о +19.7 +17.5 87 +22 +22 комфорт 1023.4 1016.0
23 17.04 Ю 5 н/о {туман} н/о +21.6 +17.6 78 +26 +26 душно 1023.8 1016.4
01 18.04 Ю 6 н/о н/о +24.4 +19.7 75 +30 +30 очень
душно
1023.3 1015.9
02 18.04 Ю 7 н/о н/о +24.4 +19.0 72 +29 +29 душно 1022.7 1015.3 +16.8
04 18.04 Ю 9 н/о н/о +23.9 +19.0 74 +29 +29 душно 1021.9 1014.5
05 18.04 Ю 7 н/о н/о +23.4 +19.1 77 +30 +30 очень
душно
1022.0 1014.6
07 18.04 Ю 6 н/о н/о +21.8 +18.6 82 +27 +27 душно 1022.0 1014.6
08 18.04 Ю 5 н/о н/о +21.6 +19.0 85 +26 +26 душно 1022.7 1015.3
10 18.04 ЮВ 6 н/о н/о +21.3 +17.9 81 +25 +25 комфорт 1023.9 1016.5
11 18.04 ЮВ 5 н/о в посл. час дождь {туман} н/о +20.5 +18.6 89 +24 +24 комфорт 1024.3 1016.9
13 18.04 ЮВ 6 н/о н/о +20.9 +17.9 83 +25 +25 комфорт 1024.3 1016.9
14 18.04 ЮВ 6 н/о {туман} н/о +21.6 +18.2 81 +26 +26 душно 1024.1 1016.7 +25.0
16 18.04 Ю 2 н/о н/о +19.6 +16.8 84 +22 +22 комфорт 1023.3 1015.9
17 18.04 ЮЗ 3 н/о {осадки} н/о +19.4 +16.8 85 +22 +22 комфорт 1022.8 1015.4 0.2
19 18.04 Ю 3 н/о н/о +19.0 +17.7 92 +21 +21 комфорт 1023.3 1015.9
20 18.04 ЮЗ 4 н/о в посл. час дождь {туман} н/о +18.6 +17.6 94 +20 +20 1023.7 1016.3
22 18.04 Ю 3 н/о н/о +20.8 +19.1 90 +26 +26 душно 1025.0 1017.6
23 18.04 ЮВ 6 н/о {туман} н/о +24.5 +19.6 74 +30 +30 очень
душно
1025.3 1017.9
01 19.04 ЮВ 5 н/о н/о +25.1 +21.0 78 +32 +32 очень
душно
1024.7 1017.3
02 19.04 ЮВ 6 н/о в посл. час дождь {туман} н/о +23.9 +21.0 84 +30 +30 очень
душно
1023.7 1016.3 +18.6
04 19.04 В 6 н/о н/о +23.5 +19.0 76 +28 +28 душно 1022.8 1015.4
05 19.04 В 6 н/о в посл. час осадки н/о +21.5 +20.0 91 +27 +27 душно 1022.5 1015.1 13
07 19.04 В 5 н/о н/о +21.8 +19.5 87 +27 +27 душно 1022.7 1015.3
08 19.04 В 7 н/о в посл. час дождь {туман} н/о +22.3 +19.3 83 +28 +28 душно 1023.1 1015.7
10 19.04 В 6 н/о н/о +22.0 +19.4 85 +27 +27 душно 1023.9 1016.5
11 19.04 В 6 н/о {туман} н/о +22.3 +19.3 83 +28 +28 душно 1024.2 1016.8
13 19.04 В 6 н/о н/о +22.6 +18.6 78 +28 +28 душно 1023.7 1016.3
14 19.04 В 6 н/о н/о +22.5 +17.8 75 +28 +28 душно 1023.4 1016.0 +25.4
16 19.04 В 6 н/о н/о +22.0 +18.4 80 +27 +27 душно 1022.9 1015.5
17 19.04 В 4 н/о в посл. час дождь {туман} н/о +21.1 +18.9 87 +25 +25 комфорт 1022.5 1015.1
19 19.04 ЮВ 5 н/о н/о +20.8 +18.4 86 +25 +25 комфорт 1022.7 1015.3
20 19.04 ЮВ 7 н/о н/о +22.2 +18.2 78 +27 +27 душно 1023.0 1015.6
22 19.04 В 6 н/о н/о +23.2 +18.3 74 +29 +29 душно 1024.2 1016.8
23 19.04 В 6 н/о н/о +24.5 +18.7 70 +29 +29 душно 1024.5 1017.1
01 20.04 В 6 н/о н/о +25.4 +20.0 72 +31 +31 очень
душно
1024.0 1016.6
02 20.04 В 6 н/о н/о +25.6 +19.9 71 +31 +31 очень
душно
1023.3 1015.9 +20.1
04 20.04 В 7 н/о н/о +24.6 +19.7 74 +30 +30 очень
душно
1022.1 1014.7
05 20.04 В 7 н/о в посл. час дождь {туман} н/о +22.8 +18.8 78 +29 +29 очень
душно
1022.1 1014.7
07 20.04 В 6 н/о н/о +22.9 +18.7 77 +29 +29 очень
душно
1022.0 1014.6
08 20.04 В 7 н/о н/о +22.0 +18.4 80 +27 +27 душно 1022.5 1015.1
10 20.04 В 7 н/о н/о +22.4 +17.5 74 +27 +27 душно 1023.4 1016.0
11 20.04 В 7 н/о н/о +22.5 +17.2 72 +27 +27 душно 1023.7 1016.3
13 20.04 В 6 н/о н/о +22.5 +17.2 72 +27 +27 душно 1023.1 1015.7
14 20.04 В 6 н/о н/о +22.1 +17.7 76 +27 +27 душно 1022.8 1015.4 +26.1
16 20.04 В 5 н/о н/о +22.2 +17.1 73 +27 +27 душно 1022.3 1014.9
17 20.04 В 5 н/о н/о +21.9 +16.4 71 +26 +26 душно 1021.8 1014.4
19 20.04 В 5 н/о н/о +21.5 +16.2 72 +25 +25 комфорт 1021.9 1014.5
20 20.04 В 5 н/о н/о +21.5 +16.7 74 +25 +25 комфорт 1022.4 1015.0
22 20.04 В 5 н/о н/о +22.1 +17.9 77 +27 +27 душно 1023.4 1016.0
23 20.04 В 4 н/о н/о +23.7 +17.9 70 +28 +28 душно 1023.6 1016.2
01 21.04 В 6 н/о н/о +23.6 +17.6 69 +28 +28 душно 1023.3 1015.9
02 21.04 В 7 н/о {туман} н/о +23.9 +16.7 64 +27 +27 жарко 1022.5 1015.1 +21.1
04 21.04 В 7 н/о н/о +24.2 +17.0 64 +28 +28 душно 1021.4 1014.0
05 21.04 В 6 н/о {туман} н/о +23.5 +16.1 63 +27 +27 душно 1021.4 1014.0
07 21.04 В 7 н/о н/о +22.0 +15.8 68 +26 +26 душно 1021.9 1014.5
08 21.04 В 6 н/о н/о +21.9 +16.0 69 +26 +26 душно 1022.1 1014.7
10 21.04 В 6 н/о н/о +21.8 +15.2 66 +25 +25 комфорт 1023.0 1015.6
11 21.04 В 5 н/о н/о +21.6 +14.7 65 +25 +25 комфорт 1023.0 1015.6
13 21.04 В 4 н/о н/о +21.1 +14.7 67 +24 +24 комфорт 1022.7 1015.3
14 21.04 ЮВ 4 н/о н/о +20.9 +15.0 69 +24 +24 комфорт 1022.4 1015.0 +25.5
16 21.04 В 4 н/о н/о +20.9 +15.9 73 +25 +25 комфорт 1021.1 1013.7
17 21.04 В 4 н/о н/о +20.8 +14.9 69 +24 +24 комфорт 1020.9 1013.5
19 21.04 З 3 н/о н/о +17.5 +15.0 85 +18 +18 1021.1 1013.7
20 21.04 ЮЗ 3 н/о н/о +17.3 +15.1 87 +17 +17 1021.3 1013.9
22 21.04 ЮЗ 3 н/о н/о +19.0 +16.4 85 +21 +21 комфорт 1022.6 1015.2
23 21.04 Ю 2 н/о н/о +22.2 +17.8 76 +27 +27 душно 1022.8 1015.4
01 22.04 ЮВ 2 н/о н/о +23.8 +18.0 70 +28 +28 душно 1022.3 1014.9
02 22.04 ЮВ 2 н/о н/о +24.0 +17.7 68 +28 +28 душно 1021.9 1014.5 +17.2
04 22.04 В 5 н/о н/о +24.4 +17.9 67 +29 +29 душно 1021.3 1013.9
05 22.04 В 4 н/о н/о +23.6 +17.6 69 +28 +28 душно 1021.0 1013.6
07 22.04 В 5 н/о н/о +21.2 +17.6 80 +25 +25 комфорт 1021.5 1014.1
08 22.04 В 7 н/о {туман} н/о +21.3 +16.5 74 +25 +25 комфорт 1022.0 1014.6
10 22.04 В 6 н/о н/о +22.1 +16.8 72 +26 +26 душно 1023.2 1015.8
11 22.04 В 6 н/о {туман} н/о +22.1 +17.0 73 +27 +27 душно 1023.4 1016.0
13 22.04 В 6 н/о н/о +21.8 +15.4 67 +25 +25 комфорт 1023.7 1016.3
14 22.04 В 5 н/о н/о +21.5 +15.6 69 +25 +25 комфорт 1023.8 1016.4 +25.7
16 22.04 В 5 н/о н/о +21.4 +15.9 71 +25 +25 комфорт 1023.1 1015.7
17 22.04 В 5 н/о н/о +21.5 +16.5 73 +25 +25 комфорт 1022.9 1015.5
19 22.04 В 5 н/о н/о +21.6 +16.1 71 +25 +25 комфорт 1023.3 1015.9
20 22.04 В 4 н/о н/о +21.6 +16.3 72 +25 +25 комфорт 1023.9 1016.5
22 22.04 ЮЗ 3 н/о н/о +19.6 +17.4 87 +22 +22 комфорт 1025.1 1017.7
23 22.04 В 5 н/о в посл. час дождь {туман} н/о +22.7 +17.8 74 +28 +28 душно 1025.2 1017.8

 

Местоположение метеостанции Эванс Хед (Новый Южный Уэльс, Австралия): широта -29.18 долгота 153.40 высота над уровнем моря 63 м.

В архиве по умолчанию представлена погода в Эванс Хед за последнюю неделю. Архивные данные за месяц целиком и за предыдущие месяцы, начиная с января 2011 года, Вы можете получить, выбрав интересующий диапазон дат из раскрывающегося списка и нажав кнопку "Ввод!".


*Определитесь, кто Вы:
робот инопланетянин человек

Внимание! Время в таблицах - всемирное. Для получения местного времени необходимо прибавить поправку, которая равна 10 ч.

Смотрите также архив погоды в соседних городах и на ближайших метеорологических станциях:

Погода в Ямбе (Новый Южный Уэльс, Австралия) (28 км)
Погода в Баллине (Новый Южный Уэльс, Австралия) (42 км)
Погода в Лисморе (Новый Южный Уэльс, Австралия) (44 км)
Погода в Казино (Новый Южный Уэльс, Австралия) (48 км)
Погода в Графтоне (Новый Южный Уэльс, Австралия) (64 км)
Погода на Мысе Байрон (Новый Южный Уэльс, Австралия) (65 км)
Погода в Графтон аэропорту (Новый Южный Уэльс, Австралия) (73 км)
Погода в Кулангатта аэропорту (Новый Южный Уэльс, Австралия) (113 км)
Погода в Кофс-Харборе (Новый Южный Уэльс, Австралия) (129 км)
Погода в Голд-Косте (Квинсленд, Австралия) (139 км)

Пояснения к столбцам:

Ветер - указаны скорость ветра в м/с - средняя за 10 мин, порывы в срок и между сроками (в фигурных скобках) и направление, откуда дует ветер: С - северный, СВ - северо-восточный, В - восточный, ЮВ - юго-восточный, Ю - южный, ЮЗ - юго-западный, З - западный, СЗ - северо-западный.
Видимость - горизонтальная дальность видимости в метрах или километрах. При видимости от 1 до 10 км при отсутствии осадков обычно наблюдается дымка, при ухудшении видимости до 1 км и менее - туман. В сухую погоду видимость может ухудшаться дымом, пылью или мглою.
Явления - указаны атмосферные явления, наблюдавшиеся в срок или в последний час перед сроком; фигурными скобками обозначены явления, наблюдавшиеся между сроками (за 1-3 часа до срока); квадратными скобками обозначены град или гололедные отложения с указанием их диаметра в мм.
Облачность - указаны через наклонную черту общая и нижняя облачность в баллах и высота нижней границы облаков в метрах; квадратными скобками обозначены формы облаков: Ci - перистые, Cs - перисто-слоистые, Cc - перисто-кучевые, Ac - высококучевые, As - высокослоистые, Sc - слоисто-кучевые, Ns - слоисто-дождевые, Cu - кучевые, Cb - кучево-дождевые. Подробнее классификацию облаков см. в Атласе облаков (PDF).
T - Температура воздуха - температура, измеренная на высоте 2 м над землей.
Td - Температура точки росы - температура, при понижении до которой содержащийся в воздухе водяной пар достигнет насыщения.
f - Относительная влажность воздуха - влажноcть воздуха, измеренная на высоте 2 м над землей.
Te - Эффективная температура - температура, которую ощущает одетый по сезону человек в тени. Характеристика душности погоды. При расчете учитывается влияние влажности воздуха и скорости ветра на теплоощущения человека.
Tes - Эффективная температура на солнце - температура, которую ощущает человек, с поправкой на солнечный нагрев. Характеристика знойности погоды. Зависит от высоты солнца над горизонтом, облачности и скорости ветра. Ночью, в пасмурную погоду, а также при ветре 12 м/с и более поправка равна нулю.
P - Атмосферное давление - приведенное к уровню моря атмосферное давление.
Po - Атмосферное давление - измеренное на уровне метеостанции атмосферное давление.
Tmin - Минимальная температура - минимум температуры воздуха на высоте 2 м над землей.
Tmax - Максимальная температура - максимум температуры воздуха на высоте 2 м над землей.
R - Количество осадков - Количество выпавших осадков за период времени, мм. При наведении курсора мыши на число - период времени, за который выпало указанное количество осадков.
R24 - Количество осадков - Количество выпавших осадков за 24 часа, мм.
S - Снежный покров - Высота снежного покрова, см. При наведении курсора мыши на число - состояние снежного покрова и степень покрытия местности в баллах.